Time,TemperatureF,DewpointF,PressureIn,WindDirection,WindDirectionDegrees,WindSpeedMPH,WindSpeedGustMPH,Humidity,HourlyPrecipIn,Conditions,Clouds,dailyrainin,SoftwareType,DateUTC
2013-01-18 00:05:00,23.4,17.3,30.44,NNW,331,0.0,7.0,77,0.00,,,0.00,Wunderground v.1.15,2013-01-18 05:05:00,
2013-01-18 00:10:00,23.3,17.5,30.44,NNW,331,0.0,7.0,78,0.00,,,0.00,Wunderground v.1.15,2013-01-18 05:10:00,
2013-01-18 00:15:00,23.1,17.3,30.44,NNW,331,0.0,7.0,78,0.00,,,0.00,Wunderground v.1.15,2013-01-18 05:15:00,
2013-01-18 00:20:00,23.0,17.5,30.44,NNW,331,0.0,7.0,79,0.00,,,0.00,Wunderground v.1.15,2013-01-18 05:20:00,
2013-01-18 00:30:00,22.9,17.7,30.45,NNW,331,0.0,7.0,80,0.00,,,0.00,Wunderground v.1.15,2013-01-18 05:30:00,
2013-01-18 00:35:00,22.8,17.6,30.45,NNW,331,0.0,7.0,80,0.00,,,0.00,Wunderground v.1.15,2013-01-18 05:35:00,
2013-01-18 00:40:00,22.6,17.4,30.45,NNW,331,0.0,7.0,80,0.00,,,0.00,Wunderground v.1.15,2013-01-18 05:40:00,
2013-01-18 00:45:00,22.4,17.5,30.45,NNW,331,0.0,7.0,81,0.00,,,0.00,Wunderground v.1.15,2013-01-18 05:45:00,
2013-01-18 00:50:00,22.3,17.4,30.45,NNW,331,0.0,7.0,81,0.00,,,0.00,Wunderground v.1.15,2013-01-18 05:50:00,
2013-01-18 01:00:00,22.2,17.8,30.46,NNW,329,0.0,7.0,83,0.00,,,0.00,Wunderground v.1.15,2013-01-18 06:00:00,
2013-01-18 01:05:00,22.3,17.9,30.46,WSW,243,0.0,7.0,83,0.00,,,0.00,Wunderground v.1.15,2013-01-18 06:05:00,
2013-01-18 01:10:00,22.3,17.9,30.46,WSW,243,0.0,7.0,83,0.00,,,0.00,Wunderground v.1.15,2013-01-18 06:10:00,
2013-01-18 01:15:00,22.2,17.8,30.46,WSW,243,0.0,7.0,83,0.00,,,0.00,Wunderground v.1.15,2013-01-18 06:15:00,
2013-01-18 01:20:00,22.1,17.7,30.46,WSW,243,0.0,7.0,83,0.00,,,0.00,Wunderground v.1.15,2013-01-18 06:20:00,
2013-01-18 01:25:00,22.0,17.9,30.46,WSW,243,0.0,7.0,84,0.00,,,0.00,Wunderground v.1.15,2013-01-18 06:25:00,
2013-01-18 01:35:00,22.2,18.1,30.47,WSW,243,0.0,7.0,84,0.00,,,0.00,Wunderground v.1.15,2013-01-18 06:35:00,
2013-01-18 01:40:00,22.2,18.4,30.47,WSW,243,0.0,7.0,85,0.00,,,0.00,Wunderground v.1.15,2013-01-18 06:40:00,
2013-01-18 01:45:00,22.1,18.3,30.47,WSW,243,0.0,7.0,85,0.00,,,0.00,Wunderground v.1.15,2013-01-18 06:45:00,
2013-01-18 01:55:00,21.9,18.1,30.47,WSW,243,0.0,7.0,85,0.00,,,0.00,Wunderground v.1.15,2013-01-18 06:55:00,
2013-01-18 02:00:00,21.9,18.4,30.47,WSW,243,0.0,7.0,86,0.00,,,0.00,Wunderground v.1.15,2013-01-18 07:00:00,
2013-01-18 02:10:00,22.1,18.6,30.47,WSW,243,0.0,7.0,86,0.00,,,0.00,Wunderground v.1.15,2013-01-18 07:10:00,
2013-01-18 02:15:00,22.2,18.7,30.48,WSW,243,0.0,7.0,86,0.00,,,0.00,Wunderground v.1.15,2013-01-18 07:15:00,
2013-01-18 02:20:00,22.1,18.6,30.48,WSW,243,0.0,7.0,86,0.00,,,0.00,Wunderground v.1.15,2013-01-18 07:20:00,
2013-01-18 02:25:00,22.1,18.3,30.48,WSW,243,0.0,7.0,85,0.00,,,0.00,Wunderground v.1.15,2013-01-18 07:25:00,
2013-01-18 02:30:00,22.0,18.2,30.49,WSW,243,0.0,7.0,85,0.00,,,0.00,Wunderground v.1.15,2013-01-18 07:30:00,
2013-01-18 02:35:00,21.9,18.1,30.49,WSW,243,0.0,7.0,85,0.00,,,0.00,Wunderground v.1.15,2013-01-18 07:35:00,
2013-01-18 02:40:00,22.0,18.5,30.49,WSW,243,0.0,7.0,86,0.00,,,0.00,Wunderground v.1.15,2013-01-18 07:40:00,
2013-01-18 02:45:00,21.8,18.0,30.50,WSW,243,0.0,7.0,85,0.00,,,0.00,Wunderground v.1.15,2013-01-18 07:45:00,
2013-01-18 02:50:00,21.7,18.2,30.50,WSW,243,0.0,7.0,86,0.00,,,0.00,Wunderground v.1.15,2013-01-18 07:50:00,
2013-01-18 02:55:00,21.6,18.1,30.50,WSW,243,0.0,7.0,86,0.00,,,0.00,Wunderground v.1.15,2013-01-18 07:55:00,
2013-01-18 03:00:00,21.5,18.0,30.50,WSW,243,0.0,7.0,86,0.00,,,0.00,Wunderground v.1.15,2013-01-18 08:00:00,
2013-01-18 03:10:00,21.4,17.9,30.50,WSW,243,0.0,7.0,86,0.00,,,0.00,Wunderground v.1.15,2013-01-18 08:10:00,
2013-01-18 03:15:00,21.5,18.0,30.50,WSW,243,0.0,7.0,86,0.00,,,0.00,Wunderground v.1.15,2013-01-18 08:15:00,
2013-01-18 03:20:00,21.6,18.1,30.51,WSW,243,0.0,7.0,86,0.00,,,0.00,Wunderground v.1.15,2013-01-18 08:20:00,
2013-01-18 03:25:00,21.6,18.1,30.51,WSW,243,0.0,7.0,86,0.00,,,0.00,Wunderground v.1.15,2013-01-18 08:25:00,
2013-01-18 03:30:00,21.5,18.0,30.51,WSW,243,0.0,7.0,86,0.00,,,0.00,Wunderground v.1.15,2013-01-18 08:30:00,
2013-01-18 03:35:00,21.5,18.0,30.51,WSW,243,0.0,7.0,86,0.00,,,0.00,Wunderground v.1.15,2013-01-18 08:35:00,
2013-01-18 03:45:00,21.6,18.1,30.50,WSW,243,0.0,7.0,86,0.00,,,0.00,Wunderground v.1.15,2013-01-18 08:45:00,
2013-01-18 03:50:00,21.6,18.1,30.51,WSW,243,0.0,7.0,86,0.00,,,0.00,Wunderground v.1.15,2013-01-18 08:50:00,
2013-01-18 03:55:00,21.6,18.1,30.50,WSW,243,0.0,7.0,86,0.00,,,0.00,Wunderground v.1.15,2013-01-18 08:55:00,
2013-01-18 04:00:00,21.4,17.9,30.50,WSW,243,0.0,7.0,86,0.00,,,0.00,Wunderground v.1.15,2013-01-18 09:00:00,
2013-01-18 04:05:00,21.4,17.9,30.50,WSW,243,0.0,7.0,86,0.00,,,0.00,Wunderground v.1.15,2013-01-18 09:05:00,
2013-01-18 04:15:00,21.5,18.0,30.50,WSW,243,0.0,7.0,86,0.00,,,0.00,Wunderground v.1.15,2013-01-18 09:15:00,
2013-01-18 04:20:00,21.5,18.0,30.50,WSW,243,0.0,7.0,86,0.00,,,0.00,Wunderground v.1.15,2013-01-18 09:20:00,
2013-01-18 04:25:00,21.5,18.0,30.50,WSW,243,0.0,7.0,86,0.00,,,0.00,Wunderground v.1.15,2013-01-18 09:25:00,
2013-01-18 04:30:00,21.5,18.0,30.50,WSW,243,0.0,7.0,86,0.00,,,0.00,Wunderground v.1.15,2013-01-18 09:30:00,
2013-01-18 04:35:00,21.5,18.0,30.49,WSW,243,0.0,7.0,86,0.00,,,0.00,Wunderground v.1.15,2013-01-18 09:35:00,
2013-01-18 04:40:00,21.6,18.1,30.49,WSW,243,0.0,7.0,86,0.00,,,0.00,Wunderground v.1.15,2013-01-18 09:40:00,
2013-01-18 04:50:00,21.7,18.2,30.49,SSW,204,0.0,7.0,86,0.00,,,0.00,Wunderground v.1.15,2013-01-18 09:50:00,
2013-01-18 04:55:00,21.8,18.0,30.49,SSW,204,0.0,7.0,85,0.00,,,0.00,Wunderground v.1.15,2013-01-18 09:55:00,
2013-01-18 05:00:00,21.8,18.0,30.49,SSW,211,0.0,7.0,85,0.00,,,0.00,Wunderground v.1.15,2013-01-18 10:00:00,
2013-01-18 05:05:00,21.9,18.1,30.49,SSW,209,0.0,7.0,85,0.00,,,0.00,Wunderground v.1.15,2013-01-18 10:05:00,
2013-01-18 05:10:00,21.9,18.1,30.49,SSW,196,2.0,7.0,85,0.00,,,0.00,Wunderground v.1.15,2013-01-18 10:10:00,
2013-01-18 05:20:00,22.1,18.0,30.49,SSW,200,4.0,7.0,84,0.00,,,0.00,Wunderground v.1.15,2013-01-18 10:20:00,
2013-01-18 05:25:00,22.0,17.9,30.49,SSW,195,4.0,7.0,84,0.00,,,0.00,Wunderground v.1.15,2013-01-18 10:25:00,
2013-01-18 05:30:00,21.8,17.4,30.49,SSW,198,5.0,5.0,83,0.00,,,0.00,Wunderground v.1.15,2013-01-18 10:30:00,
2013-01-18 05:35:00,21.8,17.7,30.49,SSW,208,5.0,7.0,84,0.00,,,0.00,Wunderground v.1.15,2013-01-18 10:35:00,
2013-01-18 05:40:00,21.7,17.6,30.50,SW,215,4.0,7.0,84,0.00,,,0.00,Wunderground v.1.15,2013-01-18 10:40:00,
2013-01-18 05:45:00,21.8,17.7,30.50,SW,219,4.0,7.0,84,0.00,,,0.00,Wunderground v.1.15,2013-01-18 10:45:00,
2013-01-18 05:55:00,21.7,17.6,30.50,SW,223,3.0,7.0,84,0.00,,,0.00,Wunderground v.1.15,2013-01-18 10:55:00,
2013-01-18 06:00:00,21.5,17.4,30.50,SW,223,2.0,4.0,84,0.00,,,0.00,Wunderground v.1.15,2013-01-18 11:00:00,
2013-01-18 06:10:00,21.5,17.7,30.50,SW,223,2.0,2.0,85,0.00,,,0.00,Wunderground v.1.15,2013-01-18 11:10:00,
2013-01-18 06:15:00,21.6,17.8,30.50,SW,220,3.0,4.0,85,0.00,,,0.00,Wunderground v.1.15,2013-01-18 11:15:00,
2013-01-18 06:25:00,21.7,17.9,30.50,SW,217,5.0,5.0,85,0.00,,,0.00,Wunderground v.1.15,2013-01-18 11:25:00,
2013-01-18 06:30:00,21.8,18.0,30.51,SW,217,3.0,3.0,85,0.00,,,0.00,Wunderground v.1.15,2013-01-18 11:30:00,
2013-01-18 06:35:00,21.7,17.9,30.51,SW,217,1.0,7.0,85,0.00,,,0.00,Wunderground v.1.15,2013-01-18 11:35:00,
2013-01-18 06:40:00,21.7,17.9,30.50,SW,217,0.0,7.0,85,0.00,,,0.00,Wunderground v.1.15,2013-01-18 11:40:00,
2013-01-18 06:45:00,21.7,17.9,30.50,SW,217,0.0,7.0,85,0.00,,,0.00,Wunderground v.1.15,2013-01-18 11:45:00,
2013-01-18 06:50:00,21.8,18.0,30.51,SW,217,2.0,7.0,85,0.00,,,0.00,Wunderground v.1.15,2013-01-18 11:50:00,
2013-01-18 07:00:00,21.9,18.1,30.51,SW,216,3.0,3.0,85,0.00,,,0.00,Wunderground v.1.15,2013-01-18 12:00:00,
2013-01-18 07:05:00,21.9,18.1,30.51,SW,219,4.0,4.0,85,0.00,,,0.00,Wunderground v.1.15,2013-01-18 12:05:00,
2013-01-18 07:10:00,21.9,18.1,30.51,SW,221,4.0,7.0,85,0.00,,,0.00,Wunderground v.1.15,2013-01-18 12:10:00,
2013-01-18 07:15:00,21.9,18.1,30.50,SSW,209,5.0,7.0,85,0.00,,,0.00,Wunderground v.1.15,2013-01-18 12:15:00,
2013-01-18 07:20:00,21.9,18.1,30.50,SW,220,5.0,7.0,85,0.00,,,0.00,Wunderground v.1.15,2013-01-18 12:20:00,
2013-01-18 07:25:00,21.9,18.1,30.50,SSW,201,4.0,7.0,85,0.00,,,0.00,Wunderground v.1.15,2013-01-18 12:25:00,
2013-01-18 07:30:00,21.9,17.8,30.50,SSW,207,4.0,4.0,84,0.00,,,0.00,Wunderground v.1.15,2013-01-18 12:30:00,
2013-01-18 07:35:00,21.8,17.7,30.50,SSW,197,4.0,6.0,84,0.00,,,0.00,Wunderground v.1.15,2013-01-18 12:35:00,
2013-01-18 07:40:00,21.8,17.7,30.50,SSW,194,5.0,7.0,84,0.00,,,0.00,Wunderground v.1.15,2013-01-18 12:40:00,
2013-01-18 07:45:00,21.7,17.6,30.50,SSW,208,6.0,7.0,84,0.00,,,0.00,Wunderground v.1.15,2013-01-18 12:45:00,
2013-01-18 07:50:00,21.7,17.6,30.50,SSW,209,5.0,7.0,84,0.00,,,0.00,Wunderground v.1.15,2013-01-18 12:50:00,
2013-01-18 08:00:00,21.7,17.6,30.50,SSW,200,6.0,7.0,84,0.00,,,0.00,Wunderground v.1.15,2013-01-18 13:00:00,
2013-01-18 08:05:00,21.6,17.5,30.50,South,185,6.0,9.0,84,0.00,,,0.00,Wunderground v.1.15,2013-01-18 13:05:00,
2013-01-18 08:10:00,21.7,17.6,30.50,SSW,196,6.0,6.0,84,0.00,,,0.00,Wunderground v.1.15,2013-01-18 13:10:00,
2013-01-18 08:15:00,21.6,17.5,30.50,SW,217,5.0,7.0,84,0.00,,,0.00,Wunderground v.1.15,2013-01-18 13:15:00,
2013-01-18 08:20:00,21.8,17.7,30.50,SW,217,4.0,4.0,84,0.00,,,0.00,Wunderground v.1.15,2013-01-18 13:20:00,
2013-01-18 08:25:00,21.9,17.8,30.50,SW,215,3.0,5.0,84,0.00,,,0.00,Wunderground v.1.15,2013-01-18 13:25:00,
2013-01-18 08:35:00,22.3,18.2,30.50,SW,224,4.0,7.0,84,0.00,,,0.00,Wunderground v.1.15,2013-01-18 13:35:00,
2013-01-18 08:40:00,22.5,18.4,30.50,SW,228,4.0,7.0,84,0.00,,,0.00,Wunderground v.1.15,2013-01-18 13:40:00,
2013-01-18 08:45:00,22.7,18.6,30.51,SW,221,4.0,7.0,84,0.00,,,0.00,Wunderground v.1.15,2013-01-18 13:45:00,
2013-01-18 08:50:00,22.9,18.8,30.50,SW,221,4.0,4.0,84,0.00,,,0.00,Wunderground v.1.15,2013-01-18 13:50:00,
2013-01-18 08:55:00,23.2,19.1,30.51,SSW,211,5.0,5.0,84,0.00,,,0.00,Wunderground v.1.15,2013-01-18 13:55:00,
2013-01-18 09:05:00,23.8,19.4,30.51,SW,229,6.0,7.0,83,0.00,,,0.00,Wunderground v.1.15,2013-01-18 14:05:00,
2013-01-18 09:10:00,24.0,19.6,30.51,SW,223,7.0,7.0,83,0.00,,,0.00,Wunderground v.1.15,2013-01-18 14:10:00,
2013-01-18 09:15:00,24.3,19.9,30.51,SW,222,6.0,7.0,83,0.00,,,0.00,Wunderground v.1.15,2013-01-18 14:15:00,
2013-01-18 09:20:00,24.6,20.2,30.51,SSW,207,6.0,6.0,83,0.00,,,0.00,Wunderground v.1.15,2013-01-18 14:20:00,
2013-01-18 09:25:00,24.8,20.1,30.52,SW,236,6.0,7.0,82,0.00,,,0.00,Wunderground v.1.15,2013-01-18 14:25:00,
2013-01-18 09:30:00,25.1,20.4,30.51,SW,221,6.0,8.0,82,0.00,,,0.00,Wunderground v.1.15,2013-01-18 14:30:00,
2013-01-18 09:40:00,25.3,20.6,30.51,SW,215,5.0,7.0,82,0.00,,,0.00,Wunderground v.1.15,2013-01-18 14:40:00,
2013-01-18 09:45:00,26.0,20.4,30.51,SW,223,7.0,7.0,79,0.00,,,0.00,Wunderground v.1.15,2013-01-18 14:45:00,
2013-01-18 09:50:00,26.1,20.5,30.51,SW,230,8.0,9.0,79,0.00,,,0.00,Wunderground v.1.15,2013-01-18 14:50:00,
2013-01-18 09:55:00,26.4,20.5,30.51,SSW,194,8.0,9.0,78,0.00,,,0.00,Wunderground v.1.15,2013-01-18 14:55:00,
2013-01-18 10:00:00,26.6,20.1,30.51,WSW,247,8.0,8.0,76,0.00,,,0.00,Wunderground v.1.15,2013-01-18 15:00:00,
2013-01-18 10:10:00,27.2,20.0,30.51,SW,215,8.0,10.0,74,0.00,,,0.00,Wunderground v.1.15,2013-01-18 15:10:00,
2013-01-18 10:15:00,27.5,20.0,30.51,SW,226,8.0,10.0,73,0.00,,,0.00,Wunderground v.1.15,2013-01-18 15:15:00,
2013-01-18 10:20:00,27.9,20.4,30.51,SW,221,8.0,8.0,73,0.00,,,0.00,Wunderground v.1.15,2013-01-18 15:20:00,
2013-01-18 10:25:00,28.2,20.7,30.51,SSW,197,8.0,11.0,73,0.00,,,0.00,Wunderground v.1.15,2013-01-18 15:25:00,
2013-01-18 10:30:00,28.4,20.5,30.52,SSW,209,8.0,8.0,72,0.00,,,0.00,Wunderground v.1.15,2013-01-18 15:30:00,
2013-01-18 10:35:00,28.7,20.8,30.51,SSW,198,9.0,9.0,72,0.00,,,0.00,Wunderground v.1.15,2013-01-18 15:35:00,
2013-01-18 10:45:00,29.0,20.4,30.50,SSW,204,9.0,11.0,70,0.00,,,0.00,Wunderground v.1.15,2013-01-18 15:45:00,
2013-01-18 10:50:00,29.2,21.0,30.50,South,189,8.0,12.0,71,0.00,,,0.00,Wunderground v.1.15,2013-01-18 15:50:00,
2013-01-18 10:55:00,29.5,21.3,30.50,SSW,194,9.0,12.0,71,0.00,,,0.00,Wunderground v.1.15,2013-01-18 15:55:00,
2013-01-18 11:00:00,29.8,21.5,30.50,SW,217,10.0,10.0,71,0.00,,,0.00,Wunderground v.1.15,2013-01-18 16:00:00,
2013-01-18 11:05:00,29.8,21.2,30.50,SW,221,10.0,10.0,70,0.00,,,0.00,Wunderground v.1.15,2013-01-18 16:05:00,
2013-01-18 11:15:00,30.8,22.8,30.50,SSW,192,8.0,12.0,72,0.00,,,0.00,Wunderground v.1.15,2013-01-18 16:15:00,
2013-01-18 11:20:00,30.9,22.3,30.50,SSW,202,8.0,8.0,70,0.00,,,0.00,Wunderground v.1.15,2013-01-18 16:20:00,
2013-01-18 11:25:00,30.8,22.2,30.49,SSW,204,9.0,9.0,70,0.00,,,0.00,Wunderground v.1.15,2013-01-18 16:25:00,
2013-01-18 11:30:00,30.8,22.2,30.49,SW,226,10.0,10.0,70,0.00,,,0.00,Wunderground v.1.15,2013-01-18 16:30:00,
2013-01-18 11:35:00,31.1,22.5,30.49,SW,225,9.0,14.0,70,0.00,,,0.00,Wunderground v.1.15,2013-01-18 16:35:00,
2013-01-18 11:40:00,31.0,22.0,30.49,SW,214,10.0,10.0,69,0.00,,,0.00,Wunderground v.1.15,2013-01-18 16:40:00,
2013-01-18 11:45:00,31.5,23.2,30.48,SSW,213,10.0,10.0,71,0.00,,,0.00,Wunderground v.1.15,2013-01-18 16:45:00,
2013-01-18 11:50:00,31.4,22.1,30.48,SSW,206,10.0,10.0,68,0.00,,,0.00,Wunderground v.1.15,2013-01-18 16:50:00,
2013-01-18 11:55:00,31.4,21.7,30.47,SSW,211,11.0,11.0,67,0.00,,,0.00,Wunderground v.1.15,2013-01-18 16:55:00,
2013-01-18 12:00:00,31.8,22.8,30.46,South,186,11.0,11.0,69,0.00,,,0.00,Wunderground v.1.15,2013-01-18 17:00:00,
2013-01-18 12:05:00,31.3,22.3,30.46,South,184,13.0,16.0,69,0.00,,,0.00,Wunderground v.1.15,2013-01-18 17:05:00,
2013-01-18 12:10:00,31.0,22.0,30.45,South,182,17.0,17.0,69,0.00,,,0.00,Wunderground v.1.15,2013-01-18 17:10:00,
2013-01-18 12:20:00,31.6,22.9,30.44,South,188,16.0,16.0,70,0.00,,,0.00,Wunderground v.1.15,2013-01-18 17:20:00,
2013-01-18 12:25:00,31.5,22.8,30.43,South,184,16.0,22.0,70,0.00,,,0.00,Wunderground v.1.15,2013-01-18 17:25:00,
2013-01-18 12:30:00,31.8,23.1,30.43,SSW,205,17.0,17.0,70,0.00,,,0.00,Wunderground v.1.15,2013-01-18 17:30:00,
2013-01-18 12:35:00,31.7,22.3,30.42,South,186,17.0,18.0,68,0.00,,,0.00,Wunderground v.1.15,2013-01-18 17:35:00,
2013-01-18 12:40:00,31.8,22.8,30.42,SSW,194,18.0,18.0,69,0.00,,,0.00,Wunderground v.1.15,2013-01-18 17:40:00,
2013-01-18 12:50:00,32.3,22.9,30.42,SSW,200,15.0,20.0,68,0.00,,,0.00,Wunderground v.1.15,2013-01-18 17:50:00,
2013-01-18 12:55:00,32.4,23.0,30.41,South,190,15.0,21.0,68,0.00,,,0.00,Wunderground v.1.15,2013-01-18 17:55:00,
2013-01-18 13:00:00,32.4,22.7,30.41,SSW,192,20.0,20.0,67,0.00,,,0.00,Wunderground v.1.15,2013-01-18 18:00:00,
2013-01-18 13:05:00,32.5,22.4,30.41,SW,220,20.0,20.0,66,0.00,,,0.00,Wunderground v.1.15,2013-01-18 18:05:00,
2013-01-18 13:10:00,32.9,23.5,30.40,South,191,18.0,27.0,68,0.00,,,0.00,Wunderground v.1.15,2013-01-18 18:10:00,
2013-01-18 13:15:00,33.0,22.9,30.40,South,175,18.0,27.0,66,0.00,,,0.00,Wunderground v.1.15,2013-01-18 18:15:00,
2013-01-18 13:25:00,33.3,23.9,30.40,SSW,197,17.0,17.0,68,0.00,,,0.00,Wunderground v.1.15,2013-01-18 18:25:00,
2013-01-18 13:30:00,33.6,23.4,30.39,SW,220,16.0,16.0,66,0.00,,,0.00,Wunderground v.1.15,2013-01-18 18:30:00,
2013-01-18 13:35:00,33.9,23.7,30.39,SSW,192,15.0,16.0,66,0.00,,,0.00,Wunderground v.1.15,2013-01-18 18:35:00,
2013-01-18 13:40:00,33.8,23.3,30.38,South,188,16.0,16.0,65,0.00,,,0.00,Wunderground v.1.15,2013-01-18 18:40:00,
2013-01-18 13:45:00,33.8,23.3,30.38,SW,223,18.0,18.0,65,0.00,,,0.00,Wunderground v.1.15,2013-01-18 18:45:00,
2013-01-18 13:55:00,34.1,22.8,30.37,SW,223,20.0,20.0,63,0.00,,,0.00,Wunderground v.1.15,2013-01-18 18:55:00,
2013-01-18 14:00:00,34.2,22.5,30.36,SSW,208,19.0,23.0,62,0.00,,,0.00,Wunderground v.1.15,2013-01-18 19:00:00,
2013-01-18 14:05:00,34.6,23.7,30.36,South,185,17.0,23.0,64,0.00,,,0.00,Wunderground v.1.15,2013-01-18 19:05:00,
2013-01-18 14:10:00,34.5,23.2,30.36,SSE,157,18.0,18.0,63,0.00,,,0.00,Wunderground v.1.15,2013-01-18 19:10:00,
2013-01-18 14:15:00,34.8,23.5,30.35,South,182,20.0,21.0,63,0.00,,,0.00,Wunderground v.1.15,2013-01-18 19:15:00,
2013-01-18 14:20:00,35.0,24.0,30.35,SSW,192,20.0,22.0,64,0.00,,,0.00,Wunderground v.1.15,2013-01-18 19:20:00,
2013-01-18 14:30:00,35.5,23.4,30.35,SW,215,18.0,19.0,61,0.00,,,0.00,Wunderground v.1.15,2013-01-18 19:30:00,
2013-01-18 14:35:00,35.5,23.0,30.34,South,186,19.0,21.0,60,0.00,,,0.00,Wunderground v.1.15,2013-01-18 19:35:00,
2013-01-18 14:40:00,35.6,22.7,30.34,South,190,21.0,24.0,59,0.00,,,0.00,Wunderground v.1.15,2013-01-18 19:40:00,
2013-01-18 14:45:00,35.8,23.3,30.33,SSW,194,21.0,25.0,60,0.00,,,0.00,Wunderground v.1.15,2013-01-18 19:45:00,
2013-01-18 14:50:00,35.5,21.8,30.33,South,189,21.0,22.0,57,0.00,,,0.00,Wunderground v.1.15,2013-01-18 19:50:00,
2013-01-18 15:00:00,35.6,22.3,30.33,South,185,21.0,21.0,58,0.00,,,0.00,Wunderground v.1.15,2013-01-18 20:00:00,
2013-01-18 15:05:00,35.9,23.0,30.32,SSW,202,20.0,21.0,59,0.00,,,0.00,Wunderground v.1.15,2013-01-18 20:05:00,
2013-01-18 15:10:00,35.9,23.0,30.32,South,190,19.0,19.0,59,0.00,,,0.00,Wunderground v.1.15,2013-01-18 20:10:00,
2013-01-18 15:15:00,36.0,23.4,30.32,SSE,165,20.0,25.0,60,0.00,,,0.00,Wunderground v.1.15,2013-01-18 20:15:00,
2013-01-18 15:20:00,36.2,23.6,30.32,SSW,192,21.0,21.0,60,0.00,,,0.00,Wunderground v.1.15,2013-01-18 20:20:00,
2013-01-18 15:25:00,36.4,23.4,30.31,South,189,22.0,26.0,59,0.00,,,0.00,Wunderground v.1.15,2013-01-18 20:25:00,
2013-01-18 15:35:00,36.5,24.7,30.31,SSW,202,18.0,19.0,62,0.00,,,0.00,Wunderground v.1.15,2013-01-18 20:35:00,
2013-01-18 15:40:00,36.4,24.2,30.31,South,189,20.0,20.0,61,0.00,,,0.00,Wunderground v.1.15,2013-01-18 20:40:00,
2013-01-18 15:45:00,36.5,24.7,30.30,South,190,22.0,27.0,62,0.00,,,0.00,Wunderground v.1.15,2013-01-18 20:45:00,
2013-01-18 15:50:00,36.5,24.7,30.30,SSW,196,23.0,24.0,62,0.00,,,0.00,Wunderground v.1.15,2013-01-18 20:50:00,
2013-01-18 15:55:00,36.6,24.8,30.30,SSW,209,22.0,37.0,62,0.00,,,0.00,Wunderground v.1.15,2013-01-18 20:55:00,
2013-01-18 16:05:00,36.6,24.8,30.29,South,188,22.0,25.0,62,0.00,,,0.00,Wunderground v.1.15,2013-01-18 21:05:00,
2013-01-18 16:10:00,36.4,24.6,30.29,South,185,21.0,24.0,62,0.00,,,0.00,Wunderground v.1.15,2013-01-18 21:10:00,
2013-01-18 16:15:00,36.4,25.0,30.28,SSW,205,22.0,24.0,63,0.00,,,0.00,Wunderground v.1.15,2013-01-18 21:15:00,
2013-01-18 16:20:00,36.5,25.1,30.28,SSW,198,21.0,27.0,63,0.00,,,0.00,Wunderground v.1.15,2013-01-18 21:20:00,
2013-01-18 16:25:00,36.8,25.0,30.28,SSW,202,21.0,27.0,62,0.00,,,0.00,Wunderground v.1.15,2013-01-18 21:25:00,
2013-01-18 16:30:00,36.7,26.0,30.28,South,185,21.0,21.0,65,0.00,,,0.00,Wunderground v.1.15,2013-01-18 21:30:00,
2013-01-18 16:40:00,36.2,25.9,30.28,SSW,195,19.0,20.0,66,0.00,,,0.00,Wunderground v.1.15,2013-01-18 21:40:00,
2013-01-18 16:45:00,36.4,25.7,30.28,South,188,20.0,21.0,65,0.00,,,0.00,Wunderground v.1.15,2013-01-18 21:45:00,
2013-01-18 16:50:00,36.5,25.8,30.28,SSW,194,20.0,25.0,65,0.00,,,0.00,Wunderground v.1.15,2013-01-18 21:50:00,
2013-01-18 16:55:00,36.5,25.8,30.27,South,188,20.0,25.0,65,0.00,,,0.00,Wunderground v.1.15,2013-01-18 21:55:00,
2013-01-18 17:00:00,36.5,25.8,30.27,SSW,192,20.0,20.0,65,0.00,,,0.00,Wunderground v.1.15,2013-01-18 22:00:00,
2013-01-18 17:10:00,36.6,25.9,30.27,SSW,198,21.0,22.0,65,0.00,,,0.00,Wunderground v.1.15,2013-01-18 22:10:00,
2013-01-18 17:15:00,36.6,25.9,30.26,South,185,22.0,22.0,65,0.00,,,0.00,Wunderground v.1.15,2013-01-18 22:15:00,
2013-01-18 17:20:00,36.5,25.8,30.26,South,169,20.0,20.0,65,0.00,,,0.00,Wunderground v.1.15,2013-01-18 22:20:00,
2013-01-18 17:25:00,36.4,25.7,30.26,SSW,196,20.0,23.0,65,0.00,,,0.00,Wunderground v.1.15,2013-01-18 22:25:00,
2013-01-18 17:30:00,36.5,25.5,30.25,South,190,21.0,21.0,64,0.00,,,0.00,Wunderground v.1.15,2013-01-18 22:30:00,
2013-01-18 17:35:00,36.2,25.9,30.25,South,182,20.0,21.0,66,0.00,,,0.00,Wunderground v.1.15,2013-01-18 22:35:00,
2013-01-18 17:45:00,36.3,25.7,30.25,SSW,201,21.0,26.0,65,0.00,,,0.00,Wunderground v.1.15,2013-01-18 22:45:00,
2013-01-18 17:50:00,36.1,25.8,30.25,SSW,193,22.0,23.0,66,0.00,,,0.00,Wunderground v.1.15,2013-01-18 22:50:00,
2013-01-18 17:55:00,36.0,25.7,30.25,South,178,20.0,23.0,66,0.00,,,0.00,Wunderground v.1.15,2013-01-18 22:55:00,
2013-01-18 18:00:00,36.0,25.7,30.25,South,189,21.0,26.0,66,0.00,,,0.00,Wunderground v.1.15,2013-01-18 23:00:00,
2013-01-18 18:05:00,35.9,26.0,30.25,South,177,21.0,26.0,67,0.00,,,0.00,Wunderground v.1.15,2013-01-18 23:05:00,
2013-01-18 18:15:00,35.9,26.0,30.25,SSW,196,20.0,22.0,67,0.00,,,0.00,Wunderground v.1.15,2013-01-18 23:15:00,
2013-01-18 18:20:00,35.9,25.6,30.25,SSW,193,20.0,20.0,66,0.00,,,0.00,Wunderground v.1.15,2013-01-18 23:20:00,
2013-01-18 18:25:00,35.9,26.0,30.25,SSW,206,20.0,20.0,67,0.00,,,0.00,Wunderground v.1.15,2013-01-18 23:25:00,
2013-01-18 18:30:00,36.1,25.8,30.25,South,171,21.0,21.0,66,0.00,,,0.00,Wunderground v.1.15,2013-01-18 23:30:00,
2013-01-18 18:35:00,36.0,25.7,30.25,South,182,22.0,22.0,66,0.00,,,0.00,Wunderground v.1.15,2013-01-18 23:35:00,
2013-01-18 18:40:00,36.0,26.1,30.25,SSW,193,21.0,21.0,67,0.00,,,0.00,Wunderground v.1.15,2013-01-18 23:40:00,
2013-01-18 18:50:00,35.9,26.4,30.25,South,191,21.0,26.0,68,0.00,,,0.00,Wunderground v.1.15,2013-01-18 23:50:00,
2013-01-18 18:55:00,36.0,26.5,30.24,South,171,21.0,26.0,68,0.00,,,0.00,Wunderground v.1.15,2013-01-18 23:55:00,
2013-01-18 19:00:00,35.9,26.4,30.24,South,185,22.0,22.0,68,0.00,,,0.00,Wunderground v.1.15,2013-01-19 00:00:00,
2013-01-18 19:05:00,35.8,26.6,30.24,SSW,196,22.0,22.0,69,0.00,,,0.00,Wunderground v.1.15,2013-01-19 00:05:00,
2013-01-18 19:10:00,35.9,26.4,30.24,South,187,21.0,25.0,68,0.00,,,0.00,Wunderground v.1.15,2013-01-19 00:10:00,
2013-01-18 19:15:00,36.0,26.5,30.24,South,188,22.0,25.0,68,0.00,,,0.00,Wunderground v.1.15,2013-01-19 00:15:00,
2013-01-18 19:20:00,36.0,26.8,30.24,SSW,192,23.0,23.0,69,0.00,,,0.00,Wunderground v.1.15,2013-01-19 00:20:00,
2013-01-18 19:25:00,36.2,26.6,30.24,SSW,194,24.0,25.0,68,0.00,,,0.00,Wunderground v.1.15,2013-01-19 00:25:00,
2013-01-18 19:30:00,36.2,26.6,30.24,SSW,193,25.0,25.0,68,0.00,,,0.00,Wunderground v.1.15,2013-01-19 00:30:00,
2013-01-18 19:35:00,36.3,26.7,30.23,South,182,24.0,31.0,68,0.00,,,0.00,Wunderground v.1.15,2013-01-19 00:35:00,
2013-01-18 19:40:00,36.4,26.8,30.23,SSW,197,25.0,25.0,68,0.00,,,0.00,Wunderground v.1.15,2013-01-19 00:40:00,
2013-01-18 19:50:00,36.3,26.7,30.23,SSW,204,25.0,36.0,68,0.00,,,0.00,Wunderground v.1.15,2013-01-19 00:50:00,
2013-01-18 19:55:00,36.4,26.8,30.23,South,182,26.0,36.0,68,0.00,,,0.00,Wunderground v.1.15,2013-01-19 00:55:00,
2013-01-18 20:00:00,36.5,26.9,30.22,SW,221,27.0,27.0,68,0.00,,,0.00,Wunderground v.1.15,2013-01-19 01:00:00,
2013-01-18 20:05:00,36.4,26.8,30.22,SSW,203,26.0,27.0,68,0.00,,,0.00,Wunderground v.1.15,2013-01-19 01:05:00,
2013-01-18 20:10:00,36.6,26.7,30.22,South,190,25.0,25.0,67,0.00,,,0.00,Wunderground v.1.15,2013-01-19 01:10:00,
2013-01-18 20:15:00,36.5,26.9,30.22,South,180,25.0,25.0,68,0.00,,,0.00,Wunderground v.1.15,2013-01-19 01:15:00,
2013-01-18 20:25:00,36.6,26.7,30.22,SSW,200,24.0,24.0,67,0.00,,,0.00,Wunderground v.1.15,2013-01-19 01:25:00,
2013-01-18 20:30:00,36.4,26.8,30.21,South,184,26.0,26.0,68,0.00,,,0.00,Wunderground v.1.15,2013-01-19 01:30:00,
2013-01-18 20:35:00,36.5,26.9,30.22,SW,220,26.0,26.0,68,0.00,,,0.00,Wunderground v.1.15,2013-01-19 01:35:00,
2013-01-18 20:40:00,36.5,26.9,30.21,SSW,196,25.0,29.0,68,0.00,,,0.00,Wunderground v.1.15,2013-01-19 01:40:00,
2013-01-18 20:45:00,36.5,26.9,30.20,SSW,193,25.0,29.0,68,0.00,,,0.00,Wunderground v.1.15,2013-01-19 01:45:00,
2013-01-18 20:55:00,36.4,27.2,30.20,South,185,24.0,26.0,69,0.00,,,0.00,Wunderground v.1.15,2013-01-19 01:55:00,
2013-01-18 21:00:00,36.4,27.2,30.20,South,182,24.0,24.0,69,0.00,,,0.00,Wunderground v.1.15,2013-01-19 02:00:00,
2013-01-18 21:05:00,36.4,27.2,30.20,South,188,23.0,24.0,69,0.00,,,0.00,Wunderground v.1.15,2013-01-19 02:05:00,
2013-01-18 21:10:00,36.4,27.2,30.19,SSW,197,23.0,23.0,69,0.00,,,0.00,Wunderground v.1.15,2013-01-19 02:10:00,
2013-01-18 21:15:00,36.4,27.2,30.19,SSW,193,24.0,29.0,69,0.00,,,0.00,Wunderground v.1.15,2013-01-19 02:15:00,
2013-01-18 21:20:00,36.5,27.3,30.19,SSW,197,25.0,25.0,69,0.00,,,0.00,Wunderground v.1.15,2013-01-19 02:20:00,
2013-01-18 21:30:00,36.4,27.2,30.19,South,188,24.0,24.0,69,0.00,,,0.00,Wunderground v.1.15,2013-01-19 02:30:00,
2013-01-18 21:35:00,36.5,27.3,30.19,SSW,200,22.0,24.0,69,0.00,,,0.00,Wunderground v.1.15,2013-01-19 02:35:00,
2013-01-18 21:40:00,36.4,27.2,30.18,SW,215,22.0,22.0,69,0.00,,,0.00,Wunderground v.1.15,2013-01-19 02:40:00,
2013-01-18 21:45:00,36.4,27.2,30.18,South,187,23.0,23.0,69,0.00,,,0.00,Wunderground v.1.15,2013-01-19 02:45:00,
2013-01-18 21:50:00,36.5,27.3,30.18,SSW,205,23.0,23.0,69,0.00,,,0.00,Wunderground v.1.15,2013-01-19 02:50:00,
2013-01-18 22:00:00,36.2,27.4,30.18,SSW,194,20.0,26.0,70,0.00,,,0.00,Wunderground v.1.15,2013-01-19 03:00:00,
2013-01-18 22:05:00,36.2,27.4,30.18,South,190,21.0,26.0,70,0.00,,,0.00,Wunderground v.1.15,2013-01-19 03:05:00,
2013-01-18 22:10:00,36.3,27.1,30.17,SSW,194,22.0,22.0,69,0.00,,,0.00,Wunderground v.1.15,2013-01-19 03:10:00,
2013-01-18 22:15:00,36.1,27.3,30.17,SSW,192,22.0,25.0,70,0.00,,,0.00,Wunderground v.1.15,2013-01-19 03:15:00,
2013-01-18 22:20:00,36.2,27.4,30.17,South,178,22.0,23.0,70,0.00,,,0.00,Wunderground v.1.15,2013-01-19 03:20:00,
2013-01-18 22:25:00,36.3,27.1,30.17,SSW,200,22.0,23.0,69,0.00,,,0.00,Wunderground v.1.15,2013-01-19 03:25:00,
2013-01-18 22:35:00,36.2,27.4,30.17,South,182,21.0,22.0,70,0.00,,,0.00,Wunderground v.1.15,2013-01-19 03:35:00,
2013-01-18 22:40:00,36.1,27.3,30.16,SSW,192,17.0,26.0,70,0.00,,,0.00,Wunderground v.1.15,2013-01-19 03:40:00,
2013-01-18 22:45:00,36.2,27.4,30.16,SSW,200,18.0,26.0,70,0.00,,,0.00,Wunderground v.1.15,2013-01-19 03:45:00,
2013-01-18 22:50:00,36.3,27.4,30.16,SSW,200,20.0,21.0,70,0.00,,,0.00,Wunderground v.1.15,2013-01-19 03:50:00,
2013-01-18 22:55:00,36.4,27.5,30.16,SSW,206,21.0,23.0,70,0.00,,,0.00,Wunderground v.1.15,2013-01-19 03:55:00,
2013-01-18 23:05:00,36.2,27.4,30.15,SSW,203,17.0,26.0,70,0.00,,,0.00,Wunderground v.1.15,2013-01-19 04:05:00,
2013-01-18 23:10:00,36.2,27.4,30.15,WSW,242,16.0,18.0,70,0.00,,,0.00,Wunderground v.1.15,2013-01-19 04:10:00,
2013-01-18 23:15:00,36.5,27.3,30.15,South,189,19.0,19.0,69,0.00,,,0.00,Wunderground v.1.15,2013-01-19 04:15:00,
2013-01-18 23:20:00,36.6,27.4,30.15,SW,214,21.0,22.0,69,0.00,,,0.00,Wunderground v.1.15,2013-01-19 04:20:00,
2013-01-18 23:25:00,36.7,27.5,30.15,South,188,21.0,22.0,69,0.00,,,0.00,Wunderground v.1.15,2013-01-19 04:25:00,
2013-01-18 23:30:00,36.6,27.4,30.15,South,190,19.0,19.0,69,0.00,,,0.00,Wunderground v.1.15,2013-01-19 04:30:00,
2013-01-18 23:40:00,36.6,27.4,30.15,South,190,18.0,19.0,69,0.00,,,0.00,Wunderground v.1.15,2013-01-19 04:40:00,
2013-01-18 23:45:00,36.8,27.6,30.15,SSW,194,18.0,26.0,69,0.00,,,0.00,Wunderground v.1.15,2013-01-19 04:45:00,
2013-01-18 23:50:00,36.9,27.3,30.15,South,186,19.0,20.0,68,0.00,,,0.00,Wunderground v.1.15,2013-01-19 04:50:00,
2013-01-18 23:55:00,36.8,27.6,30.15,SSW,197,19.0,20.0,69,0.00,,,0.00,Wunderground v.1.15,2013-01-19 04:55:00,